User: anonymous   Login
Location: Mount Kobau Star Party
(49.1167°N, 119.7333°W)
Time: 18:02:01
(UTC-08:00)
Language:

TSX-5 - Orbit

View from above orbital plane
View from above orbital plane
View from above satellite
View from above satellite

Ground track
Ground track

The orbit data is extracted from the following two-line orbital elements,

1 26374U 00030A   14325.82727860  .00012472  00000-0  10783-2 0  4600
2 26374 068.9338 144.7224 0692957 255.3438 203.2406 13.95255554724603
Epoch (UTC): 21 November 2014 19:51:16
Eccentricity: 0.0692957
inclination: 68.9338°
perigee height: 405 km
apogee height: 1415 km
right ascension of ascending node: 144.7224°
argument of perigee: 255.3438°
revolutions per day: 13.95255554
mean anomaly at epoch: 203.2406°
orbit number at epoch: 72460

The dashed part of the orbit path shows where the satellite is in the earth's shadow,  

DLR